Regional Weather Roundup
Issued by NWS

Home | Current Version | Previous Version | Text Only | Print | Product List | Glossary Off
Versions: 1 2 3 4 5 6 7 8 9 10 11 12 13 14 15 16 17 18 19 20 21 22 23 24 25 26 27 28 29 30 31 32 33 34 35 36 37 38 39 40 41 42 43 44 45 46 47 48 49 50

471
ASUS43 KBIS 231110
RWRND

NORTH DAKOTA REGIONAL WEATHER ROUNDUP
NATIONAL WEATHER SERVICE BISMARCK ND
500 AM CST THU FEB 23 2017

NOTE: "FAIR" INDICATES FEW OR NO CLOUDS BELOW 12,000 FEET WITH NO
SIGNIFICANT WEATHER AND/OR OBSTRUCTIONS TO VISIBILITY.


NDZ001>003-009>011-017-231200-
NORTHWEST NORTH DAKOTA

CITY           SKY/WX    TMP DP  RH WIND       PRES   REMARKS
WILLISTON      CLOUDY    28  26  92 SW6       30.02R
MINOT          FLURRIES  33  27  78 NW7       29.98R
MINOT AFB      MIX PCPN  30  28  93 N13       29.99R
$$

NDZ018>021-031>035-040>046-231200-
SOUTHWEST NORTH DAKOTA

CITY           SKY/WX    TMP DP  RH WIND       PRES   REMARKS
BISMARCK       CLOUDY    28  25  88 W3        29.99F
DICKINSON      CLOUDY    24  22  91 NW3       29.96R FOG
GARRISON         N/A     27  24  89 NW5       29.97F
HETTINGER ARPT CLOUDY    27  24  89 NE5       29.96S
$$

NDZ004>008-012>016-024-026-027-054-231200-
NORTHEAST NORTH DAKOTA

CITY           SKY/WX    TMP DP  RH WIND       PRES   REMARKS
GRAND FORKS    CLOUDY    29  20  69 N6        30.02R
GRND FRKS AFB  CLOUDY    28  24  84 N7        30.02R
DEVILS LAKE    CLOUDY    24  22  91 CALM      30.01R
$$

NDZ022-023-025-028>030-036>039-047>053-231200-
SOUTHEAST NORTH DAKOTA

CITY           SKY/WX    TMP DP  RH WIND       PRES   REMARKS
FARGO          CLEAR     26  24  92 NW6       30.00R WCI  19
JAMESTOWN      FAIR      23  21  92 N5        29.97S WCI  17
$$





USA.gov is the U.S. government's official web portal to all federal, state and local government web resources and services.